Flag for Germany Weather past 2 weeks in Waldkraiburg, Bavaria, Germany

Now
60 °F

Passing clouds.


Feels Like: 60 °F
Forecast: 57 / 81 °F
Wind: 1 mph from Northeast

Location: Muenchen Flughafen

Current Time: Aug 2, 2014 at 1:21:55 AM

Latest Report: Aug 2, 2014 at 1:00 AM


Visibility: 16 mi

Pressure: 29.83 "Hg

Humidity: 100%

Dew point: 60 °F

Location of WaldkraiburgLocation

Historic Weather in Waldkraiburg — Graph

°F

Waldkraiburg temperature yesterday

Maximum temperature yesterday: 76 °F (at 7:00 PM)
Minimum temperature yesterday: 52 °F (at 4:00 AM)
Average temperature yesterday: 65 °F

Past Weeks' High & Low Weather Summary

 TemperatureHumidityPressure
High88 °F (Jul 19, 4:00 PM)100% (Jul 23, 4:00 AM)30.15 "Hg (Jul 23, 4:00 AM)
Low51 °F (Jul 24, 6:00 AM)33% (Jul 19, 4:00 PM)29.67 "Hg (Jul 29, 7:00 PM)
Average67 °F78%29.88 "Hg
* Reported Midnight between Jul 17 and Jul 18 — Midnight between Aug 1 and Aug 2, Waldkraiburg, Weather by CustomWeather, © 2014

Note: Actual official high and low records may vary slightly from our data, if they occured in-between our weather recording intervals... More about our weather records

Advertising

Waldkraiburg weather history for previous 24 hours

 ConditionsComfort  
Time TempWeatherWind HumidityBarometerVisibility
12:00 AM
Aug 2
63 °FPassing clouds.1 mph92%29.83 "Hg19 mi
11:00 PM
Aug 1
67 °FPassing clouds.3 mph80%29.83 "Hg25 mi
10:00 PM69 °FPassing clouds.3 mph76%29.82 "Hg25 mi
9:00 PM70 °FPassing clouds.3 mph71%29.81 "Hg19 mi
8:00 PM74 °FScattered clouds.3 mph61%29.79 "Hg22 mi
7:00 PM76 °FPartly sunny.3 mph57%29.78 "Hg19 mi
6:00 PM76 °FPartly sunny.3 mph58%29.78 "Hg19 mi
5:00 PM75 °FOvercast.3 mph58%29.79 "Hg19 mi
4:00 PM75 °FOvercast.3 mph58%29.81 "Hg19 mi
3:00 PM74 °FOvercast.3 mph57%29.82 "Hg16 mi
2:00 PM72 °FOvercast.5 mph64%29.84 "Hg16 mi
1:00 PM72 °FOvercast.6 mph63%29.85 "Hg16 mi
12:00 PM71 °FPartly sunny.5 mph65%29.87 "Hg11 mi
11:00 AM68 °FPartly sunny.3 mph69%29.89 "Hg9 mi
10:00 AM65 °FPartly sunny.3 mph82%29.90 "Hg6 mi
9:00 AM60 °FFog.2 mph98%29.93 "Hg2 mi
8:00 AM58 °FFog.1 mph99%29.94 "Hg1 mi
7:00 AM54 °FFog.1 mph100%29.95 "Hg1 mi
6:00 AM52 °FFog.1 mph100%29.96 "Hg0 mi
5:00 AM52 °FFog.1 mph100%29.96 "Hg1 mi
4:00 AM52 °FFog.1 mph98%29.98 "Hg1 mi
3:00 AM54 °FFog.1 mph99%29.98 "Hg9 mi
2:00 AM54 °FPassing clouds.1 mph99%29.99 "Hg12 mi
1:00 AM56 °FPassing clouds.1 mph99%29.99 "Hg16 mi
Weather by CustomWeather, © 2014

See weather overviewHow to use our weather pages